Change the Weather History Date:

Friday, April 12, 2013

  Actual Average Record
Temperature  
Mean Temperature 55 °F -  
Max Temperature 66 °F 60 °F 82 °F (2001)
Min Temperature 45 °F 36 °F 25 °F (1989)
Degree Days  
Heating Degree Days 10    
Growing Degree Days 5 (Base 50)    
Moisture  
Dew Point 50 °F    
Average Humidity 75    
Maximum Humidity 96    
Minimum Humidity 52    
Precipitation  
Precipitation 0.44 in - - ()
Sea Level Pressure  
Sea Level Pressure 29.62 in    
Wind  
Wind Speed 11 mph (SW)    
Max Wind Speed 18 mph    
Max Gust Speed 30 mph    
Visibility 9 miles    
Events Rain    
Averages and records for this station are not official NWS values.
T = Trace of Precipitation, MM = Missing Value Source: NWS Daily Summary

Daily Weather History Graph

Daily Weather History Graph

Search for Another Location

Airport or City:

Trip Planner

Search our weather history database for the weather conditions in past years. The results will help you decide how hot, cold, wet, or windy it might be!

Date:

Astronomy

Apr. 12, 2013 Rise Set
Actual Time 6:45 AM EDT 7:55 PM EDT
Civil Twilight 6:17 AM EDT 8:23 PM EDT
Nautical Twilight 5:44 AM EDT 8:57 PM EDT
Astronomical Twilight 5:09 AM EDT 9:32 PM EDT
Moon 7:54 AM EDT (4/12) 10:25 PM EDT (4/12)
Length of Visible Light 14h 06m
Length of Day
13h 10m
Waxing Crescent, 5% of the Moon is Illuminated
Apr 12
Waxing Crescent
Apr 18
First Quarter
Apr 25
Full
May 2
Last Quarter
May 9
New

Hourly Weather History & Observations

Time (EDT) Temp. Windchill Dew Point Humidity Pressure Visibility Wind Dir Wind Speed Gust Speed Precip Events Conditions
12:53 AM 60.1 °F - 53.1 °F 78% 29.57 in 10.0 mi East 8.1 mph - N/A   Mostly Cloudy
1:53 AM 64.0 °F - 54.0 °F 70% 29.55 in 10.0 mi ESE 10.4 mph - N/A   Mostly Cloudy
2:53 AM 64.9 °F - 55.0 °F 70% 29.53 in 10.0 mi SE 11.5 mph - 0.00 in Rain Light Rain
3:53 AM 63.0 °F - 57.0 °F 81% 29.55 in 5.0 mi South 4.6 mph - 0.03 in Rain Light Rain
4:24 AM 60.8 °F - 57.2 °F 88% 29.55 in 3.0 mi SSE 5.8 mph - 0.12 in Rain Rain
4:53 AM 60.1 °F - 59.0 °F 96% 29.53 in 3.0 mi South 5.8 mph - 0.18 in Rain Light Rain
5:53 AM 60.1 °F - 59.0 °F 96% 29.54 in 3.0 mi SSE 10.4 mph - 0.08 in Rain Light Rain
6:10 AM 60.8 °F - 59.0 °F 94% 29.54 in 4.0 mi SSE 12.7 mph - 0.01 in Rain Light Rain
6:53 AM 61.0 °F - 59.0 °F 93% 29.51 in 6.0 mi SSE 12.7 mph - 0.06 in Rain Light Rain
7:53 AM 60.1 °F - 59.0 °F 96% 29.52 in 5.0 mi South 8.1 mph - 0.05 in Rain Light Rain
8:49 AM 60.8 °F - 57.2 °F 88% 29.52 in 10.0 mi South 10.4 mph - 0.01 in   Overcast
8:53 AM 61.0 °F - 57.9 °F 90% 29.52 in 10.0 mi South 10.4 mph - 0.01 in   Overcast
9:14 AM 62.6 °F - 59.0 °F 88% 29.53 in 10.0 mi South 12.7 mph - N/A   Mostly Cloudy
9:25 AM 62.6 °F - 57.2 °F 82% 29.53 in 10.0 mi SSW 12.7 mph 20.7 mph N/A   Overcast
9:53 AM 63.0 °F - 57.9 °F 84% 29.54 in 10.0 mi SSW 15.0 mph 23.0 mph N/A   Overcast
10:53 AM 63.0 °F - 57.9 °F 84% 29.57 in 10.0 mi WSW 18.4 mph 25.3 mph 0.03 in   Overcast
11:04 AM 60.8 °F - 57.2 °F 88% 29.58 in 10.0 mi West 17.3 mph 29.9 mph N/A   Overcast
11:24 AM 62.6 °F - 55.4 °F 77% 29.58 in 10.0 mi West 13.8 mph 23.0 mph N/A   Mostly Cloudy
11:53 AM 61.0 °F - 52.0 °F 72% 29.61 in 10.0 mi West 17.3 mph 26.5 mph N/A   Overcast
12:53 PM 57.9 °F - 48.9 °F 72% 29.65 in 10.0 mi WSW 18.4 mph 27.6 mph N/A   Overcast
1:19 PM 60.8 °F - 48.2 °F 63% 29.63 in 10.0 mi WSW 16.1 mph 21.9 mph N/A   Mostly Cloudy
1:53 PM 62.1 °F - 48.0 °F 60% 29.63 in 10.0 mi WSW 15.0 mph 21.9 mph N/A   Mostly Cloudy
2:53 PM 63.0 °F - 48.0 °F 58% 29.62 in 10.0 mi West 13.8 mph 23.0 mph N/A   Mostly Cloudy
3:53 PM 62.1 °F - 46.0 °F 56% 29.63 in 10.0 mi West 13.8 mph 21.9 mph N/A   Scattered Clouds
4:53 PM 61.0 °F - 43.0 °F 52% 29.65 in 10.0 mi West 16.1 mph 27.6 mph N/A   Clear
5:53 PM 57.0 °F - 41.0 °F 55% 29.70 in 10.0 mi West 15.0 mph 23.0 mph N/A   Partly Cloudy
6:53 PM 48.0 °F - 36.0 °F 63% 29.78 in 10.0 mi WNW 13.8 mph 28.8 mph N/A   Scattered Clouds
7:53 PM 46.9 °F - 32.0 °F 56% 29.81 in 10.0 mi WNW 9.2 mph 24.2 mph N/A   Overcast
8:53 PM 46.0 °F 41.4 °F 32.0 °F 58% 29.83 in 10.0 mi West 9.2 mph 17.3 mph N/A   Overcast
9:53 PM 46.0 °F 41.0 °F 32.0 °F 58% 29.86 in 10.0 mi West 10.4 mph - N/A   Overcast
10:53 PM 46.0 °F 41.0 °F 33.1 °F 61% 29.86 in 10.0 mi West 10.4 mph 16.1 mph N/A   Overcast
11:53 PM 45.0 °F 39.3 °F 34.0 °F 65% 29.86 in 10.0 mi West 11.5 mph - N/A   Overcast